[[{"header":{"parameterUnit":"m.s-1","parameterCategory":1,"la1":30.2991,"la2":30.254,"lo1":-89.0895,"lo2":-89.0444,"dy":0.0017,"dx":0.0017,"nx":28,"ny":28,"refTime":"2024-05-19T09:00:00:Z","depth":0,"parameterNumber":2,"parameterNumberName":"U-component_of_WINDS"},"data":[0,0,0,0,0,0,0,0,0,0,0,0,0,0,0,0,0,0,0,0,0,0,0,0,0,0,0,0,0,0,0,0,0,0,0,0,0,0,0,0,0,0,0,0,0,0,0,0,0,0,0,0,0,0,0,0,0,0,-0.401,-0.4009,0,-0.3931,-0.393,-0.3929,-0.3885,-0.3885,-0.3884,-0.3884,-0.3803,-0.3801,-0.3799,0,0,0,0,0,0,0,0,0,0,0,0,0,-0.4125,-0.4124,-0.401,-0.4009,-0.4008,-0.3931,-0.393,-0.3929,-0.3885,-0.3885,-0.3884,-0.3884,-0.3804,-0.3801,-0.3799,0,0,0,0,0,0,0,0,0,0,0,0,0,-0.4064,-0.4123,-0.4011,-0.3977,-0.3973,-0.3931,-0.393,-0.3929,-0.3885,-0.3885,-0.3884,-0.3884,-0.3804,-0.3802,-0.3798,-0.3784,0,0,-0.3789,-0.3788,0,0,0,0,0,0,0,0,-0.4067,-0.406,-0.3983,-0.3979,-0.3975,-0.3918,-0.3941,-0.388,-0.3885,-0.3918,-0.3884,-0.3884,-0.3841,-0.3835,-0.3821,-0.378,-0.3777,-0.3789,-0.3787,-0.3786,-0.3785,0,0,0,0,0,0,0,-0.4072,-0.4063,-0.3979,-0.3982,-0.3977,-0.3967,-0.3958,-0.3929,-0.3882,-0.3915,-0.3912,-0.3903,-0.3839,-0.3824,-0.3819,-0.3775,-0.3789,-0.3786,-0.3784,-0.3783,-0.3721,-0.3721,0,0,0,0,0,0,-0.4081,-0.4067,-0.3981,-0.3977,-0.4022,-0.3965,-0.3955,-0.3936,-0.3882,-0.3874,-0.3903,-0.3901,-0.3829,-0.3822,-0.3815,-0.3796,-0.3786,-0.3783,-0.3781,-0.3721,-0.3721,-0.3721,0,0,0,0,0,0,-0.4084,-0.4074,-0.3985,-0.4021,-0.4008,-0.3963,-0.3943,-0.3935,-0.3919,-0.3873,-0.3865,-0.3896,-0.3829,-0.382,-0.3793,-0.3792,-0.3782,-0.3779,-0.3721,-0.3721,-0.3721,-0.3756,0,0,0,0,0,0,-0.4087,-0.4075,-0.4068,-0.4021,-0.4007,-0.3962,-0.3943,-0.3933,-0.3914,-0.3911,-0.3864,-0.3856,-0.3828,-0.3797,-0.379,-0.3788,-0.3776,-0.372,-0.3721,-0.3721,-0.3754,-0.3757,-0.3759,0,0,0,0,0,-0.4092,-0.4081,-0.4068,-0.4058,-0.3997,-0.3962,-0.3954,-0.3922,-0.3914,-0.3908,-0.3879,-0.3858,-0.3794,-0.3795,-0.3786,-0.3783,-0.372,-0.3721,-0.3721,-0.3753,-0.3756,-0.3759,0,0,0,0,0,0,-0.4129,-0.4074,-0.4059,-0.4033,-0.4003,-0.3955,-0.3945,-0.3926,-0.3897,-0.3895,-0.3857,-0.3846,-0.3823,-0.3801,-0.3803,-0.3767,-0.3755,-0.3754,-0.3783,-0.3785,-0.3788,-0.3793,-0.3774,0,0,0,0,0,-0.4134,-0.411,-0.4064,-0.4045,-0.4031,-0.3991,-0.3974,-0.3952,-0.3919,-0.3906,-0.3875,-0.3844,-0.3817,-0.38,-0.3773,-0.3752,-0.3741,-0.3745,-0.3748,-0.375,-0.3749,-0.3738,-0.3739,-0.3723,-0.3723,-0.3723,0,0,-0.4145,-0.4112,-0.4099,-0.4052,-0.4026,-0.4002,-0.398,-0.3956,-0.3938,-0.3903,-0.3875,-0.3852,-0.3815,-0.3791,-0.3779,-0.3771,-0.3752,-0.3751,-0.3753,-0.3751,-0.3739,-0.374,-0.3742,-0.3723,-0.3723,-0.3723,0,0,-0.4151,-0.4124,-0.4106,-0.4081,-0.4042,-0.4016,-0.4012,-0.3968,-0.3951,-0.3923,-0.3896,-0.3876,-0.383,-0.3805,-0.3786,-0.3788,-0.3768,-0.378,-0.3793,-0.3782,-0.3784,-0.3785,-0.3786,-0.3786,-0.3779,-0.3779,-0.378,0,-0.4169,-0.4132,-0.4099,-0.4077,-0.4057,-0.4025,-0.4007,-0.3985,-0.3939,-0.3927,-0.392,-0.3863,-0.3836,-0.3806,-0.3807,-0.3793,-0.3788,-0.3784,-0.3786,-0.3787,-0.3787,-0.3788,-0.3788,-0.3781,-0.3781,-0.3781,-0.3781,0,-0.4156,-0.4132,-0.4122,-0.4079,-0.4059,-0.4039,-0.4004,-0.3988,-0.3968,-0.3944,-0.3917,-0.3884,-0.385,-0.3842,-0.3822,-0.381,-0.3807,-0.3793,-0.378,-0.3791,-0.3791,-0.3791,-0.3784,-0.3783,-0.3782,-0.3782,0,0,-0.4182,-0.4123,-0.412,-0.4101,-0.4058,-0.4038,-0.4018,-0.3985,-0.3973,-0.3943,-0.3926,-0.389,-0.3878,-0.3857,-0.3835,-0.3825,-0.383,-0.3813,-0.3812,-0.3818,-0.3816,-0.3826,-0.3827,-0.3817,-0.3817,-0.3817,-0.3819,0,-0.4182,-0.4143,-0.4114,-0.4087,-0.4064,-0.4035,-0.4018,-0.399,-0.3967,-0.3945,-0.392,-0.3895,-0.3881,-0.3869,-0.3858,-0.3831,-0.3829,-0.3831,-0.3801,-0.38,-0.381,-0.3826,-0.3836,-0.3839,-0.3819,-0.3819,-0.3819,0,-0.4177,-0.4149,-0.412,-0.4081,-0.407,-0.4055,-0.4024,-0.4003,-0.3972,-0.3956,-0.3935,-0.3912,-0.3891,-0.3881,-0.3851,-0.3854,-0.384,-0.3826,-0.3825,-0.382,-0.3809,-0.3822,-0.384,-0.384,-0.3818,-0.3818,-0.3818,0,-0.4199,-0.4155,-0.4131,-0.4116,-0.407,-0.406,-0.404,-0.4009,-0.3992,-0.3965,-0.3954,-0.3925,-0.391,-0.3889,-0.386,-0.3855,-0.3834,-0.3821,-0.3821,-0.3821,-0.3816,-0.3817,-0.3832,-0.3809,-0.3809,-0.3809,-0.3809,0,-0.4202,-0.4185,-0.4141,-0.4127,-0.4108,-0.4076,-0.4058,-0.4036,-0.4009,-0.399,-0.3964,-0.3948,-0.3911,-0.389,-0.3868,-0.3848,-0.3841,-0.3828,-0.3822,-0.383,-0.3832,-0.382,-0.3818,-0.3809,-0.3809,-0.3809,-0.3809,0,-0.4222,-0.4192,-0.4165,-0.4124,-0.4114,-0.4102,-0.4067,-0.4053,-0.403,-0.4008,-0.4,-0.3964,-0.3939,-0.3909,-0.3874,-0.3859,-0.3841,-0.3832,-0.3852,-0.3848,-0.3849,-0.385,-0.3857,-0.3856,-0.3834,-0.3834,-0.3835,0,-0.4226,-0.4212,-0.4171,-0.4157,-0.4138,-0.4115,-0.4099,-0.4067,-0.4051,-0.4016,-0.4006,-0.3979,-0.3956,-0.3918,-0.3889,-0.3863,-0.3853,-0.3857,-0.3849,-0.3858,-0.3853,-0.3854,-0.3853,-0.3859,-0.386,-0.386,-0.386,0,-0.4235,-0.4222,-0.4198,-0.417,-0.415,-0.4127,-0.4102,-0.4092,-0.4056,-0.4039,-0.4014,-0.3996,-0.3961,-0.3935,-0.3906,-0.3886,-0.3868,-0.3864,-0.3862,-0.3869,-0.3881,-0.3875,-0.3857,-0.3863,-0.3863,-0.3863,-0.3862,-0.3862,-0.4247,-0.4235,-0.4204,-0.4179,-0.4157,-0.4135,-0.412,-0.4096,-0.4074,-0.4043,-0.4027,-0.4002,-0.3974,-0.3932,-0.3914,-0.3895,-0.3888,-0.3886,-0.3885,-0.3885,-0.3887,-0.3885,-0.3889,-0.3889,-0.3889,-0.3889,-0.3889,0,-0.4256,-0.4235,-0.4212,-0.4179,-0.416,-0.4145,-0.4117,-0.4103,-0.4081,-0.4056,-0.4034,-0.4006,-0.3981,-0.3952,-0.3926,-0.3916,-0.3907,-0.391,-0.391,-0.3907,-0.3895,-0.3899,-0.3918,-0.3918,-0.3918,-0.3918,-0.3918,-0.3918,-0.4258,-0.4236,-0.4219,-0.4187,-0.4166,-0.4142,-0.4127,-0.4108,-0.4088,-0.4057,-0.4037,-0.4018,-0.3992,-0.3964,-0.3941,-0.3933,-0.3925,-0.3931,-0.392,-0.391,-0.3907,-0.3905,-0.3908,-0.3929,-0.3929,-0.3933,-0.3934,-0.3934]},{"header":{"parameterUnit":"m.s-1","parameterCategory":1,"la1":30.2991,"la2":30.254,"lo1":-89.0895,"lo2":-89.0444,"dy":0.0017,"dx":0.0017,"nx":28,"ny":28,"refTime":"2024-05-19T09:00:00:Z","depth":0,"parameterNumber":3,"parameterNumberName":"V-component_of_WINDS"},"data":[0,0,0,0,0,0,0,0,0,0,0,0,0,0,0,0,0,0,0,0,0,0,0,0,0,0,0,0,0,0,0,0,0,0,0,0,0,0,0,0,0,0,0,0,0,0,0,0,0,0,0,0,0,0,0,0,0,0,2.6759,2.6759,0,2.6745,2.6744,2.6744,2.6799,2.6801,2.6803,2.6804,2.6785,2.6783,2.6781,0,0,0,0,0,0,0,0,0,0,0,0,0,2.6829,2.6828,2.6759,2.6759,2.6759,2.6745,2.6744,2.6744,2.6799,2.6801,2.6803,2.6805,2.6785,2.6783,2.678,0,0,0,0,0,0,0,0,0,0,0,0,0,2.6805,2.6827,2.6759,2.6784,2.6787,2.6745,2.6744,2.6744,2.6799,2.6801,2.6804,2.6806,2.6786,2.6783,2.678,2.6712,0,0,2.6771,2.6769,0,0,0,0,0,0,0,0,2.6806,2.6802,2.6781,2.6783,2.6785,2.6776,2.6762,2.6733,2.6798,2.6794,2.6804,2.6807,2.678,2.6777,2.6769,2.6711,2.671,2.677,2.6769,2.6767,2.6766,0,0,0,0,0,0,0,2.6808,2.6803,2.6753,2.678,2.6783,2.6795,2.6794,2.6757,2.6773,2.6794,2.6798,2.6796,2.6781,2.6772,2.6769,2.671,2.677,2.6768,2.6766,2.6765,2.6593,2.6591,0,0,0,0,0,0,2.6807,2.6804,2.6754,2.6753,2.6802,2.6792,2.6791,2.6776,2.6773,2.6775,2.6794,2.6799,2.6776,2.6772,2.6768,2.6687,2.6767,2.6764,2.6763,2.6596,2.6593,2.659,0,0,0,0,0,0,2.6808,2.6802,2.6754,2.678,2.6774,2.6788,2.6771,2.6775,2.6766,2.6773,2.6776,2.6782,2.6778,2.6773,2.6725,2.6687,2.6763,2.676,2.6599,2.6595,2.6591,2.6524,0,0,0,0,0,0,2.681,2.6802,2.6777,2.6779,2.6773,2.6712,2.6769,2.6773,2.6761,2.6767,2.6763,2.6764,2.6779,2.673,2.6722,2.6684,2.6758,2.6603,2.6597,2.6592,2.653,2.6519,2.6509,0,0,0,0,0,2.6812,2.6758,2.6776,2.6769,2.6742,2.671,2.6707,2.6727,2.6758,2.6732,2.6737,2.6764,2.6693,2.6724,2.6717,2.6677,2.6605,2.6599,2.6593,2.6535,2.6521,2.6509,0,0,0,0,0,0,2.675,2.6759,2.6778,2.6723,2.6716,2.672,2.6688,2.6711,2.6694,2.67,2.6724,2.6722,2.667,2.6669,2.6704,2.661,2.6654,2.6646,2.6613,2.6599,2.6589,2.6589,2.6755,0,0,0,0,0,2.673,2.6705,2.6713,2.6664,2.6659,2.6674,2.6661,2.6677,2.6669,2.6666,2.6668,2.6658,2.6633,2.6617,2.6594,2.6531,2.653,2.65,2.6489,2.648,2.6472,2.6437,2.6424,2.657,2.657,2.657,0,0,2.6688,2.669,2.6672,2.6651,2.6647,2.6619,2.6671,2.6639,2.6618,2.6661,2.6616,2.6617,2.6608,2.6552,2.6527,2.6549,2.6432,2.6472,2.6465,2.6462,2.643,2.6416,2.6403,2.6566,2.6566,2.6567,0,0,2.6597,2.6596,2.6555,2.655,2.6544,2.6555,2.6544,2.6545,2.6547,2.6504,2.6535,2.651,2.6467,2.6459,2.6449,2.6356,2.638,2.6348,2.6291,2.6257,2.6245,2.6235,2.62,2.6188,2.634,2.634,2.634,0,2.6545,2.6505,2.653,2.6496,2.6485,2.6525,2.6482,2.6476,2.6462,2.6453,2.6478,2.6426,2.6422,2.6364,2.6342,2.6333,2.6321,2.6347,2.6245,2.6235,2.6226,2.6193,2.618,2.6336,2.6337,2.6337,2.6337,0,2.6441,2.6413,2.638,2.6367,2.6353,2.6314,2.6332,2.6314,2.6331,2.6338,2.6292,2.629,2.6268,2.6256,2.6272,2.6199,2.6213,2.6242,2.6286,2.6208,2.6177,2.6165,2.633,2.6332,2.6333,2.6334,0,0,2.6309,2.6311,2.6299,2.6293,2.629,2.6267,2.623,2.621,2.6194,2.6183,2.6151,2.6115,2.6141,2.613,2.6145,2.6115,2.604,2.6147,2.6148,2.6126,2.5958,2.5936,2.5921,2.6056,2.6054,2.6052,2.5958,0,2.6219,2.6157,2.6178,2.6114,2.6088,2.6125,2.6092,2.6086,2.6091,2.6068,2.6074,2.6047,2.6085,2.6078,2.6051,2.6055,2.6006,2.6062,2.6025,2.6023,2.6025,2.5905,2.5881,2.5793,2.5947,2.5945,2.5943,0,2.6105,2.6091,2.6025,2.6026,2.6015,2.5986,2.5969,2.5947,2.594,2.5946,2.5934,2.5956,2.5918,2.5963,2.591,2.5948,2.5934,2.5934,2.5931,2.5927,2.5977,2.5896,2.5765,2.5751,2.5925,2.5926,2.5928,0,2.6014,2.5979,2.5934,2.5929,2.5929,2.5907,2.5905,2.5901,2.5887,2.5872,2.5863,2.5843,2.5831,2.5814,2.583,2.5862,2.5773,2.5821,2.5776,2.5775,2.5754,2.5755,2.5618,2.5748,2.5748,2.5748,2.5749,0,2.591,2.5868,2.5893,2.5866,2.5819,2.5843,2.5796,2.5799,2.5794,2.5767,2.5798,2.5771,2.5794,2.5768,2.578,2.5733,2.5728,2.5731,2.5734,2.5727,2.5727,2.5717,2.5723,2.5745,2.5746,2.5746,2.5747,0,2.58,2.5816,2.5769,2.5774,2.5774,2.5739,2.5742,2.5715,2.5724,2.5689,2.5682,2.5694,2.5666,2.568,2.565,2.5658,2.5598,2.561,2.56,2.5603,2.5557,2.556,2.5408,2.5388,2.5532,2.553,2.5529,0,2.5732,2.57,2.5701,2.5686,2.5683,2.5658,2.5644,2.5666,2.5651,2.564,2.5615,2.559,2.5571,2.5524,2.5529,2.5507,2.5518,2.5466,2.5514,2.5508,2.5515,2.5516,2.5512,2.5455,2.5453,2.5452,2.5451,0,2.5609,2.5618,2.5599,2.5581,2.5565,2.5551,2.5541,2.5526,2.5548,2.5529,2.5501,2.5487,2.5457,2.5431,2.5411,2.5409,2.5432,2.5436,2.5424,2.5416,2.5411,2.5412,2.5572,2.5439,2.544,2.5441,2.5442,2.5442,2.5517,2.549,2.5487,2.5463,2.5458,2.5448,2.5423,2.5429,2.5407,2.5385,2.54,2.5367,2.536,2.5336,2.533,2.5303,2.5324,2.5307,2.5302,2.5297,2.5291,2.5417,2.53,2.53,2.5301,2.5301,2.5301,0,2.5395,2.5394,2.5373,2.5358,2.5339,2.5365,2.5355,2.5337,2.5308,2.53,2.5281,2.5249,2.5224,2.5227,2.5204,2.5182,2.5192,2.5175,2.5176,2.5175,2.5274,2.5286,2.5167,2.5167,2.5167,2.5167,2.5167,2.5167,2.5329,2.5285,2.5294,2.5247,2.5247,2.5216,2.5207,2.5197,2.5191,2.5154,2.5134,2.5137,2.5133,2.511,2.5088,2.509,2.5079,2.5057,2.5062,2.5155,2.5168,2.5181,2.5192,2.5055,2.5055,2.4965,2.4964,2.4964]}]]